TimeEDT,TemperatureF,Dew PointF,Humidity,Sea Level PressureIn,VisibilityMPH,Wind Direction,Wind SpeedMPH,Gust SpeedMPH,PrecipitationIn,Events,Conditions,WindDirDegrees,DateUTC
12:53 AM,70.0,63.0,78,29.82,10.0,South,12.7,21.9,N/A,,Overcast,180,2013-06-01 04:53:00
1:49 AM,68.0,62.6,83,29.82,10.0,South,9.2,17.3,N/A,,Mostly Cloudy,170,2013-06-01 05:49:00
1:53 AM,68.0,62.1,81,29.81,10.0,SSE,6.9,17.3,N/A,,Overcast,160,2013-06-01 05:53:00
2:02 AM,68.0,62.6,83,29.82,10.0,South,9.2,-,N/A,,Mostly Cloudy,170,2013-06-01 06:02:00
2:11 AM,68.0,62.6,83,29.82,10.0,SSE,9.2,17.3,N/A,,Mostly Cloudy,160,2013-06-01 06:11:00
2:23 AM,68.0,62.6,83,29.82,10.0,SSE,9.2,-,N/A,,Mostly Cloudy,160,2013-06-01 06:23:00
2:43 AM,68.0,62.6,83,29.81,10.0,South,8.1,-,N/A,,Overcast,170,2013-06-01 06:43:00
2:53 AM,68.0,62.1,81,29.79,10.0,South,8.1,-,0.00,Rain-Thunderstorm,Light Rain,180,2013-06-01 06:53:00
3:03 AM,66.2,62.6,88,29.81,10.0,SSE,5.8,-,0.00,Rain-Thunderstorm,Light Rain,160,2013-06-01 07:03:00
3:38 AM,66.2,64.4,94,29.82,7.0,South,15.0,21.9,0.10,Rain-Thunderstorm,Rain,180,2013-06-01 07:38:00
3:53 AM,66.9,64.9,93,29.79,10.0,South,9.2,-,0.11,Rain,Light Rain,170,2013-06-01 07:53:00
4:53 AM,66.9,64.0,90,29.77,10.0,South,8.1,18.4,0.01,,Scattered Clouds,170,2013-06-01 08:53:00
5:53 AM,66.0,63.0,90,29.80,10.0,South,12.7,-,N/A,,Scattered Clouds,190,2013-06-01 09:53:00
6:53 AM,66.0,63.0,90,29.74,10.0,SSE,8.1,16.1,0.01,Rain,Light Rain,160,2013-06-01 10:53:00
7:53 AM,66.0,63.0,90,29.76,10.0,South,10.4,19.6,0.00,,Overcast,180,2013-06-01 11:53:00
8:09 AM,66.2,62.6,88,29.79,10.0,WSW,8.1,-,N/A,,Overcast,240,2013-06-01 12:09:00
8:53 AM,66.9,63.0,87,29.79,10.0,SW,6.9,-,N/A,,Overcast,230,2013-06-01 12:53:00
9:53 AM,68.0,63.0,84,29.80,10.0,SW,13.8,-,N/A,,Mostly Cloudy,220,2013-06-01 13:53:00
10:41 AM,71.6,64.4,78,29.80,10.0,South,10.4,-,N/A,,Scattered Clouds,190,2013-06-01 14:41:00
10:53 AM,72.0,63.0,73,29.79,10.0,South,13.8,-,N/A,,Partly Cloudy,190,2013-06-01 14:53:00
11:53 AM,73.0,63.0,71,29.78,10.0,SSW,12.7,18.4,N/A,,Scattered Clouds,200,2013-06-01 15:53:00
12:53 PM,75.0,62.1,64,29.78,10.0,SSW,16.1,24.2,0.01,,Mostly Cloudy,210,2013-06-01 16:53:00
1:53 PM,75.9,63.0,64,29.78,10.0,SSW,12.7,-,N/A,,Scattered Clouds,210,2013-06-01 17:53:00
2:53 PM,77.0,63.0,62,29.77,10.0,SW,15.0,-,N/A,,Mostly Cloudy,220,2013-06-01 18:53:00
3:53 PM,73.0,62.1,68,29.78,10.0,SSW,12.7,19.6,N/A,,Mostly Cloudy,200,2013-06-01 19:53:00
4:53 PM,72.0,62.1,71,29.78,9.0,South,9.2,-,N/A,,Overcast,190,2013-06-01 20:53:00
5:53 PM,70.0,62.1,76,29.76,10.0,South,10.4,-,N/A,,Overcast,180,2013-06-01 21:53:00
6:53 PM,70.0,62.1,76,29.74,10.0,South,12.7,-,N/A,,Overcast,180,2013-06-01 22:53:00
7:53 PM,70.0,62.1,76,29.73,10.0,South,8.1,-,N/A,,Overcast,170,2013-06-01 23:53:00
8:53 PM,71.1,61.0,70,29.72,10.0,South,10.4,-,N/A,,Overcast,180,2013-06-02 00:53:00
9:53 PM,70.0,62.1,76,29.71,10.0,South,9.2,-,N/A,,Overcast,190,2013-06-02 01:53:00
10:53 PM,69.1,62.1,78,29.70,10.0,SSW,11.5,-,N/A,,Overcast,200,2013-06-02 02:53:00
11:53 PM,64.0,60.1,87,29.71,6.0,West,6.9,-,0.10,Rain,Light Rain,260,2013-06-02 03:53:00